Tracking 28096 objects as of 28-Sep-2023
HD Live streaming from Space Station
objects crossing your sky now

FLOCK 4X 42

Track FLOCK 4X 42 now!
10-day predictions


NORAD ID: 51018
Int'l Code: 2022-002AL
Perigee: 474.3 km
Apogee: 485.4 km
Inclination: 97.4 °
Period: 94.1 minutes
Semi major axis: 6850 km
RCS: Unknown
Launch date: January 13, 2022
Source: United States (US)
Launch site: AIR FORCE EASTERN TEST RANGE (AFETR)
Your satellite tracking list
Your tracking list is empty




NASA's NSSDC Master Catalog

Two Line Element Set (TLE):
1 51018U 22002AL  23270.45175446  .00018853  00000-0  62975-3 0  9998
2 51018  97.4258 338.6612 0008069 219.3659 140.6996 15.31043971 94472
Source of the keplerian elements: AFSPC